Content
SEND FEEDBACK

Daily
Averages
Monthly
Summary
United States of America

DEXTER, MISSOURI


Home > North America > United States > Missouri
Elevation: 303 feet     Latitude: 36 46N     Longitude: 089 56W

WEATHER
 
SELECT A DAY
Number of Records: 211,925;   Date Range: 1/1/95 - 11/26/14
 
SHARE

PRINT THIS DATA

[ ← Previous Day ]
WEATHER ALMANAC - APRIL 18, 2014
[ Next Day → ]
[ °C ]   °F
Weather ElementAverageHighLow
Temperature62 °F73 °F (3:53 pm)50 °F (1:53 am)
Dewpoint43.5 °F51.1 °F (8:53 pm)41 °F (12:53 pm)
Humidity54 %80 % (2:53 am)33 % (2:53 pm)
Barometer30.22 in30.27 in (10:53 am)30.16 in (5:53 pm)
Wind Speed5.3 mph13.8 mph (12:53 pm)
Wind Gust17.3 mph (12:53 pm)
Weather ElementAverage
Visibility10 mi
Wind DirectionENE (79 °)

Weather ElementTotal
Precipitation---
Heating Degree Days3.5 (Base 65)
Growing Degree Days11.5 (Base 50)
Averaged from 21 records on April 18, 2014
WEATHER CONDITIONS BREAKOUT
WIND DIRECTION BREAKOUT
WEATHER BY HOUR - APRIL 18, 2014
[ °C ]   °F
Local TimeTemperatureDewpointHumidityBarometerVisibilityWind DirectionWind SpeedGust SpeedPrecipitationEventsConditions
1:53 AM50.0 °F42.1 °F74 %30.22 in10.0 miCalmMostly Cloudy
2:53 AM50.0 °F44.1 °F80 %30.23 in10.0 miCalmScattered Clouds
3:53 AM52.0 °F43.0 °F71 %30.26 in10.0 miSE (140°)4.6 mph0.00 inRainLight Rain
4:53 AM52.0 °F45.0 °F77 %30.25 in10.0 miCalm0.00 inRainLight Rain
5:53 AM51.1 °F43.0 °F74 %30.22 in10.0 miCalm0.00 inScattered Clouds
6:53 AM50.0 °F44.1 °F80 %30.24 in10.0 miNNW (330°)3.5 mphClear
7:53 AM55.9 °F45.0 °F67 %30.25 in10.0 miNNW (340°)4.6 mphMostly Cloudy
8:53 AM62.1 °F43.0 °F50 %30.26 in10.0 miNNE (20°)4.6 mphClear
9:53 AM66.0 °F43.0 °F43 %30.26 in10.0 miENE (60°)6.9 mphClear
10:53 AM68.0 °F43.0 °F40 %30.27 in10.0 miENE (70°)6.9 mphClear
11:53 AM69.1 °F43.0 °F39 %30.26 in10.0 miEast (80°)9.2 mph16.1 mphClear
12:53 PM70.0 °F41.0 °F35 %30.25 in10.0 miEast (80°)13.8 mph17.3 mphScattered Clouds
1:53 PM72.0 °F43.0 °F35 %30.23 in10.0 miEast (90°)10.4 mphClear
2:53 PM72.0 °F41.0 °F33 %30.21 in10.0 miEast (80°)8.1 mph17.3 mphClear
3:53 PM73.0 °F42.1 °F33 %30.18 in10.0 miNE (50°)5.8 mphClear
4:53 PM73.0 °F43.0 °F34 %30.17 in10.0 miENE (70°)10.4 mphClear
5:53 PM72.0 °F42.1 °F34 %30.16 in10.0 miENE (70°)5.8 mphClear
7:53 PM66.9 °F43.0 °F42 %30.16 in10.0 miEast (90°)3.5 mphClear
8:53 PM60.1 °F51.1 °F72 %30.18 in10.0 miNorth (10°)5.8 mphClear
10:53 PM57.9 °F46.0 °F65 %30.20 in10.0 miNNE (30°)4.6 mphClear
11:53 PM59.0 °F43.0 °F55 %30.20 in10.0 miNE (50°)3.5 mphClear
Hourly data recorded from KPOF, located miles away from Dexter, Missouri







STORIES FROM OUR PARTNERS